Wind_Speed
22 20 20 18 17 17 25 25 26 25 24 30 31 30 29 30 32 34 32 33 35 33 32 33 31 28 28 25 21 18 15 19 17 16 16 16 12 9 5 5 6 7 7
16 15 15 13 14 23 24 21 19 21 20 20 24 25 29 30 30 32 32 33 35 37 37 37 32 28 25 21 20 19 19 14 26 23 16 12 10 8 7 5 6 7 10
12 12 8 11 14 21 22 21 20 20 23 25 27 30 31 34 35 36 37 38 38 39 38 36 32 28 26 23 20 21 21 21 21 19 15 10 7 5 3 4 7 9 10
12 14 17 17 19 25 24 26 26 26 28 27 29 31 34 36 39 42 45 44 41 34 29 33 32 27 26 22 20 19 19 21 21 18 13 9 6 5 2 4 7 10 12
22 24 25 27 28 32 30 33 32 34 34 35 36 36 34 40 41 47 47 45 40 36 31 31 28 26 22 19 19 17 17 19 16 14 11 8 6 5 2 3 7 13 18
24 24 28 29 32 34 33 37 35 38 37 37 36 40 35 35 39 42 43 43 41 38 33 29 26 25 22 20 18 15 13 15 14 12 9 8 6 3 1 3 6 9 5
26 26 26 32 31 36 31 40 31 37 38 40 41 43 40 36 37 35 38 39 36 34 32 30 25 24 23 21 20 18 16 13 11 10 10 7 5 3 2 4 5 7 9
28 28 28 29 35 33 35 38 32 41 33 37 39 40 37 32 33 36 35 35 34 31 28 27 26 21 18 17 16 14 12 9 8 7 7 4 3 2 4 6 9 13 17
28 29 29 31 34 35 34 32 38 41 32 33 35 36 36 29 28 29 31 28 27 23 21 21 21 18 16 14 13 12 9 7 6 6 5 3 4 6 8 9 9 10 8
25 26 30 34 35 34 32 33 37 36 31 29 31 28 26 26 23 26 28 27 25 21 17 17 15 16 16 12 11 10 9 7 6 3 2 4 7 8 8 9 9 10 9
26 28 29 30 32 32 32 31 34 32 28 28 26 24 22 22 20 20 19 21 23 21 18 16 15 15 13 10 8 8 6 6 4 2 5 7 7 8 9 10 10 11 13
26 28 28 28 28 28 32 29 27 25 24 23 23 23 20 19 18 15 14 15 14 18 16 15 15 13 10 8 7 6 5 2 3 5 6 7 7 9 10 12 14 17 19
29 28 28 29 28 26 26 23 22 20 19 17 18 18 16 15 14 12 14 14 13 14 16 14 13 11 8 6 4 3 3 5 6 7 7 9 10 12 16 17 18 18 21
24 24 24 25 24 21 18 17 17 15 15 15 14 14 14 14 15 14 14 11 11 11 13 13 11 8 6 6 6 8 8 8 8 10 11 11 12 14 16 16 17 18 19
21 20 19 18 17 16 14 13 13 12 11 13 13 14 13 11 10 9 9 10 11 13 14 13 11 10 9 8 9 10 10 10 10 9 10 11 13 14 17 16 17 17 17
17 14 14 14 13 13 13 12 8 7 6 6 8 9 9 8 11 11 10 9 9 13 12 12 11 10 11 11 11 11 12 11 11 11 12 14 15 16 18 17 16 18 20
10 10 10 9 9 10 10 9 10 7 5 4 6 5 4 7 10 9 7 7 10 11 9 10 10 12 14 14 13 12 12 12 14 16 16 16 16 17 18 19 18 18 20
7 8 7 7 7 7 6 5 6 6 6 5 3 4 5 8 9 11 11 12 14 15 16 15 17 16 16 15 14 14 14 13 15 16 17 18 18 18 19 19 18 18 18
6 5 5 6 6 6 6 5 5 5 6 7 7 9 10 11 12 12 13 17 18 17 18 19 19 18 18 16 16 16 17 18 18 19 20 21 20 20 22 21 19 20 20
8 6 5 4 4 5 5 6 7 8 10 13 14 15 17 18 18 18 19 22 21 24 22 22 21 20 20 19 19 19 19 20 20 21 22 21 22 22 22 22 21 19 19
8 8 9 8 8 9 10 12 13 14 15 15 16 16 16 20 21 22 23 25 28 28 26 25 25 23 22 21 21 21 21 23 23 24 23 24 23 23 23 24 22 22 22
13 13 13 13 12 13 14 14 13 14 15 16 16 18 17 22 25 23 23 26 27 28 27 27 27 26 24 23 23 23 23 25 26 25 25 24 24 25 25 24 23 23 22
15 15 13 13 13 13 13 15 17 18 19 19 19 19 21 23 24 25 28 29 28 28 28 27 27 27 27 26 25 25 26 27 27 25 25 25 25 26 25 23 23 22 21
14 14 14 14 14 16 17 19 20 21 21 19 19 21 23 25 27 28 29 30 29 28 28 27 28 28 27 27 27 27 27 27 26 25 25 27 28 27 25 25 26 27 25
17 16 17 18 18 19 19 19 21 21 21 22 23 24 25 26 26 27 27 27 27 27 27 27 27 27 26 26 26 26 26 26 25 26 29 28 28 27 27 26 27 26 26
20 21 21 18 15 16 17 18 19 20 22 24 24 25 24 25 26 26 25 25 25 25 24 24 25 25 25 25 25 25 26 27 29 27 25 26 28 29 29 30 30 29 29
Wind_Direction
258 259 260 260 266 249 198 192 189 194 182 184 184 173 173 169 168 169 165 160 159 149 149 150 141 142 134 138 136 130 121 132 123 114 136 157 168 189 234 272 284 287 285
253 255 260 257 197 170 172 175 170 163 172 174 167 157 157 152 153 154 145 148 144 137 139 137 130 131 128 127 135 132 117 132 135 128 144 157 179 196 221 274 284 295 300
244 243 219 172 157 144 141 144 144 141 135 139 141 137 139 136 135 131 129 128 126 132 136 131 121 121 126 130 130 124 124 124 128 136 141 160 169 201 237 285 288 305 309
124 110 98 104 111 118 123 120 122 127 125 126 128 132 134 134 135 136 136 133 127 117 109 113 124 134 133 135 133 127 127 123 126 127 128 141 163 201 270 275 305 315 307
86 88 87 95 99 102 104 110 112 115 115 119 118 117 117 122 125 127 125 119 112 113 115 122 127 131 127 132 133 130 131 123 120 118 124 148 161 191 214 305 302 312 318
75 82 90 91 92 94 94 97 97 103 105 108 104 106 102 104 116 118 118 119 122 123 122 122 124 121 119 118 120 121 124 131 129 135 148 169 180 176 229 295 313 333 321
68 74 83 92 91 90 96 99 93 95 100 99 99 100 99 102 105 110 120 121 122 122 121 122 122 121 121 121 112 109 112 116 132 149 154 171 165 191 263 293 298 292 282
62 70 77 86 89 95 89 92 100 93 95 99 101 103 105 109 115 125 129 128 126 129 133 134 129 132 135 136 130 124 118 113 123 137 151 156 147 232 275 284 294 304 301
69 72 76 83 88 91 94 97 96 97 96 99 104 110 112 118 124 124 125 119 116 119 125 134 137 140 138 137 139 132 130 121 131 147 154 184 243 275 287 300 311 308 296
70 80 88 93 90 89 94 95 97 99 100 101 99 101 113 125 127 129 135 129 117 116 119 126 130 143 145 146 146 147 145 165 170 189 248 287 284 289 298 297 284 274 286
73 77 80 85 91 95 96 96 99 100 101 98 102 106 113 118 115 121 132 135 134 133 132 132 133 141 148 145 153 156 158 173 180 271 289 290 300 312 307 298 292 281 269
71 73 75 80 82 89 94 96 99 103 100 102 104 97 100 111 116 123 127 136 137 143 141 143 145 147 147 148 151 142 139 203 264 277 276 291 292 290 292 292 291 285 277
84 76 79 85 86 86 89 91 91 99 102 103 103 104 104 112 117 119 127 134 141 150 155 148 144 141 144 154 147 154 222 250 254 270 283 277 279 287 293 300 301 298 294
87 89 94 96 98 98 101 105 112 114 115 113 112 116 124 130 143 148 149 145 137 133 127 135 140 165 186 208 219 229 241 256 261 265 267 275 285 296 300 301 297 298 293
98 98 96 98 101 102 102 112 119 124 137 140 146 150 148 153 162 160 165 160 157 163 163 168 179 196 209 225 239 247 254 262 265 273 278 287 291 289 290 293 288 285 268
106 105 110 114 113 109 107 98 90 106 128 141 153 160 169 175 177 168 168 167 167 171 175 189 203 214 223 231 241 247 254 260 268 271 275 277 278 282 287 284 274 268 269
118 120 119 117 123 129 130 134 124 108 110 137 160 171 178 179 163 165 171 169 175 185 205 215 217 227 233 237 243 249 256 261 266 271 274 273 275 278 277 273 267 264 266
140 141 140 148 152 156 156 149 150 151 151 160 174 195 181 176 182 182 182 185 194 216 225 225 231 233 236 241 248 256 265 268 273 277 274 276 279 278 272 265 264 264 268
166 167 162 170 175 179 177 177 176 185 190 186 200 208 194 201 207 211 212 221 220 233 239 239 241 243 245 250 258 263 269 273 276 273 277 279 281 277 273 271 268 269 270
205 206 192 195 211 205 209 207 209 209 209 210 215 218 211 206 212 217 224 232 235 245 243 249 249 250 252 255 260 265 271 276 277 281 283 285 286 284 272 272 272 270 268
218 223 216 219 221 223 225 226 226 223 222 222 228 233 228 226 227 229 237 238 247 252 253 254 256 256 257 260 264 266 269 275 279 281 282 285 285 276 278 275 271 270 270
220 223 224 227 235 238 242 243 240 239 240 239 242 244 229 234 241 240 244 248 258 263 263 261 260 261 263 266 268 269 272 278 283 285 286 285 284 280 275 269 269 267 266
224 229 234 240 245 250 253 255 257 255 251 250 249 246 249 245 241 248 256 263 265 266 268 263 261 263 266 269 272 275 276 281 286 288 285 283 276 272 268 263 265 264 262
237 243 248 254 254 255 257 259 262 262 255 255 254 253 253 256 261 260 258 263 265 267 268 267 266 268 271 274 279 283 285 288 289 288 284 280 277 274 267 263 266 268 267
243 250 252 253 253 259 264 263 262 258 259 263 265 263 263 264 264 265 266 267 268 268 269 269 270 272 275 279 282 285 287 291 290 288 286 281 279 279 276 267 269 266 266
247 251 253 254 256 253 252 252 253 258 262 267 269 270 270 269 272 274 275 273 273 273 272 271 274 277 281 284 288 292 290 288 291 291 288 284 279 274 269 269 276 270 268
Height
650 649 649 648 646 645 646 650 655 657 662 667 672 676 681 692 698 705 712 719 728 739 746 754 763 771 777 785 793 797 801 805 812 824 828 833 837 839 839 839 838 837 837
644 644 644 644 642 640 644 648 652 659 664 668 673 680 685 693 701 708 716 725 733 740 750 757 766 772 780 789 797 798 801 804 807 817 827 832 836 837 836 836 836 835 833
640 641 641 641 641 641 646 651 656 662 669 674 680 685 691 695 705 713 722 731 738 744 752 754 764 778 786 793 799 798 802 805 807 813 824 831 834 835 834 833 832 830 828
637 640 642 644 647 647 652 656 661 669 673 681 686 694 697 704 710 717 723 733 742 753 763 763 770 782 787 795 801 801 803 806 810 814 821 828 834 832 832 832 829 828 826
641 643 646 650 654 655 661 664 670 674 680 686 691 698 706 708 716 720 727 737 747 756 766 772 777 783 790 796 800 804 806 808 812 817 822 828 830 831 830 829 828 826 822
650 652 654 657 660 663 668 672 679 682 688 694 702 703 716 720 725 728 736 742 752 759 768 776 782 784 791 795 801 806 808 809 812 817 822 826 829 827 827 828 827 826 823
661 663 664 666 670 671 680 678 692 692 699 704 710 714 723 732 735 739 749 751 758 764 772 780 786 789 793 798 803 805 808 810 812 817 821 824 823 825 827 827 825 824 820
675 674 677 677 676 686 687 689 703 700 713 715 720 725 734 742 744 751 756 758 764 771 777 781 784 793 797 802 804 806 808 812 815 817 819 820 822 824 824 823 822 818 816
687 688 689 689 691 695 701 708 705 711 724 727 731 735 740 751 756 757 761 769 773 779 783 786 787 795 799 802 806 807 809 811 815 819 818 818 820 820 819 818 816 817 815
702 702 702 701 703 706 713 715 716 725 733 739 741 746 753 761 763 763 766 772 776 783 788 791 792 796 801 804 805 807 809 814 816 818 816 815 818 817 815 814 816 815 814
714 714 714 715 716 718 722 726 729 736 743 745 751 757 764 766 766 768 774 777 781 785 789 793 796 798 801 803 805 807 812 813 814 812 813 815 815 812 812 812 812 811 811
724 724 725 726 728 730 732 737 742 746 750 755 760 761 767 769 771 776 779 782 785 787 789 794 796 799 801 804 807 809 810 810 810 812 813 811 810 809 808 807 806 805 805
734 735 735 736 738 741 743 746 749 754 757 762 763 766 771 773 776 779 783 785 788 788 789 792 796 800 803 805 806 806 807 809 810 809 808 808 807 805 803 801 800 798 797
744 745 746 746 749 751 754 756 758 760 762 765 767 771 775 778 781 783 784 786 788 788 791 794 797 800 801 802 803 805 806 806 805 804 803 802 801 800 799 798 796 794 792
751 752 753 755 757 758 760 762 764 766 768 769 771 772 774 777 780 782 784 786 787 788 790 793 796 798 800 801 801 801 801 800 799 798 798 797 796 796 794 793 792 790 789
756 758 759 760 761 763 764 766 767 768 769 770 771 773 775 777 779 781 784 786 787 789 792 794 796 797 797 796 796 797 797 796 795 795 794 793 791 790 789 789 788 786 783
761 762 763 764 765 766 767 768 769 771 771 773 774 776 778 779 782 784 786 788 790 791 791 792 792 792 792 792 793 793 793 793 792 791 789 788 786 785 785 783 782 780 777
763 764 765 766 767 769 770 771 773 774 775 776 777 778 779 781 782 782 783 785 786 785 784 784 785 787 787 787 787 788 787 787 785 784 783 782 780 779 778 776 775 774 771
765 766 766 767 768 770 771 772 774 775 776 777 777 778 778 780 780 781 782 781 780 780 781 781 781 782 782 782 782 781 780 779 778 778 776 775 773 772 769 769 768 766 764
765 766 767 768 769 770 771 772 773 773 773 773 773 772 773 775 775 776 777 777 776 775 776 776 776 776 775 775 775 774 773 772 772 770 769 767 766 765 763 762 760 759 757
764 765 765 766 766 766 767 767 768 768 768 768 768 769 771 771 771 770 770 770 770 770 770 770 769 769 769 769 768 768 767 766 765 763 762 761 760 758 756 755 753 751 749
760 760 761 762 763 763 763 764 765 765 765 765 765 764 766 766 765 765 764 764 762 762 762 762 762 762 762 762 762 761 760 758 757 756 754 753 752 750 749 747 746 744 742
756 758 758 759 760 761 761 761 761 761 760 760 760 760 760 759 758 757 756 755 755 754 754 754 754 754 754 754 754 753 752 750 749 749 747 745 744 742 741 739 738 736 734
755 756 756 756 756 756 755 755 754 754 754 754 753 753 752 751 750 749 748 748 747 747 746 746 747 747 747 747 746 745 743 742 741 739 738 736 734 733 732 731 730 727 726
751 751 751 751 751 751 751 751 750 749 748 746 745 745 744 743 742 741 740 739 739 739 738 738 738 738 738 738 737 736 735 734 732 730 728 726 725 724 723 722 720 719 717
744 745 745 746 747 746 744 743 742 741 740 739 737 736 736 735 733 733 732 731 730 730 730 730 730 730 729 729 728 727 726 724 722 721 719 718 716 715 713 712 710 709 708